星链-37165(STARLINK-37165)

导读

STARLINK-37165(NORAD编号68287)是美国太空探索技术公司(SpaceX)星链(Starlink)项目的低轨互联网通信卫星,于2024年12月8日发射升空,截至2026年4月已在轨运行超440天。该卫星平台为Starlink V1.0,运行轨道倾角约43°,近地点约355公里,远地点约357公里,轨道周期约91.7分钟,属于近地低轨卫星,旨在为全球提供高速低延迟卫星互联网服务,缩小数字鸿沟,同时可为特定行业提供通信支持,目前状态为正常在轨。

基本信息
目录编号:
68287
目录名称:
STARLINK-37165
国际标识:
2026-055AB
轨道中心:
EARTH
卫星名称:
星链-37165
卫星全名:
星链-37165(STARLINK-37165)
卫星状态:
在轨 (已飞行178 天)
发射日期:
2026-03-19 UTC
国别 :
美国 (US)
星等 :
--
该卫星已列入 空间交会检测服务 Space Conjunction Data Service (SCDS) ,当前飞行风险评估等级: 无高风险
轨道信息
数据来源 国际轨道数据
星历时间: 2026-09-13T09:33:14+0800
9小时前
查看轨道信息
半长轴: 6840.84km
偏心率: 0.0001342
轨道倾角: 53.159°
近地点辐角 80.573°
升交点赤经 164.312°
平近点角 279.542°
近地点: 461.784km
远地点: 463.622km
周期: 93.848分钟
每日圈数: 15.344003
详细信息
固有亮度:
5
最大亮度:
2.5
卫星平台:
Starlink V1.0
覆盖范围:
全球
运营商:
太空探索技术公司
运营商所在国:
美国
制造商(研发单位):
太空探索技术公司
制造商所在国:
美国
使用方式:
暂无
卫星简介
Starlink 计划是 SpaceX 推出的全球卫星互联网项目,通过发射低轨道卫星,为全球尤其是偏远地区提供高速、低延迟的互联网服务。自 2019 年起,Starlink 已部署数千颗卫星,旨在缩小全球数字鸿沟,推动互联网普及。该项目还为军事、航空等行业提供通信支持,带来广泛经济效益。
2D轨道图
3D轨道图
轨道高度分析图
轨道倾角分析图
轨道综合分析图
查看轨道综合分析图
交会数据列表
事件ID 空间交会对象 最接近时刻(TCA) 交会距离 交会风险概率(CRP) 交会风险指数(CRI) 操作
CDM_260914-210404-002406-828721
2026-09-14T
21:04:00+0000
0.778 km
远距离
6.034285E-5 中风险 0.71
CDM_260906-180405-912506-828723
2026-09-06T
18:04:17+0000
0.959 km
远距离
3.104589E-5 中风险 0.65
CDM_260915-061104-945506-828721
2026-09-15T
06:11:54+0000
1.172 km
极远距离
9.884045E-6 低风险 0.55
CDM_260915-043804-945506-828721
2026-09-15T
04:38:07+0000
1.358 km
极远距离
5.972169E-6 低风险 0.51
CDM_260914-213304-474406-828721
2026-09-14T
21:33:37+0000
1.611 km
极远距离
3.921338E-6 低风险 0.47
CDM_260915-175504-945506-828721
2026-09-15T
17:55:21+0000
1.582 km
极远距离
3.656412E-6 低风险 0.46
CDM_260915-162104-945506-828721
2026-09-15T
16:21:33+0000
1.588 km
极远距离
3.612167E-6 低风险 0.46
CDM_260908-175204-945506-828722
2026-09-08T
17:52:23+0000
1.630 km
极远距离
3.333227E-6 低风险 0.45
CDM_260908-161804-945506-828721
2026-09-08T
16:18:35+0000
2.018 km
极远距离
1.860394E-6 低风险 0.4
CDM_260912-170705-316006-828721
2026-09-12T
17:07:46+0000
2.623 km
极远距离
1.351432E-6 低风险 0.38
与全量物体交会距离演化趋势
与全量物体交会风险概率演化趋势